Location: Newark
(41.8922°N, 9.0050°E)
Time: 01:57:44
(UTC+00:00)

Envisat - Pass Details

Date: 30 January 2020
Orbit: 764 x 766 km, 98.1° (Epoch: 21 February)

Event Time Altitude Azimuth Distance (km) Brightness Sun altitude
Rises 04:47:28 0° 32° (NNE) 3,239 6.6 -20.9°
Reaches altitude 10° 04:50:46 10° 54° (NE) 2,307 6.1 -20.3°
Maximum altitude 04:53:43 15° 90° (E) 1,951 6.2 -19.7°
Drops below altitude 10° 04:56:39 10° 126° (SE) 2,296 6.4 -19.2°
Sets 04:59:55 0° 149° (SSE) 3,216 6.8 -18.6°
